GFSGL_500_spd_057.txt.gz
Wind_Speed
69 68 65 61 59 57 57 54 49 44 45 44 43 47 45 38 36 37 35 38 39 35 31 32 30 30 31 33 32 29 27 26 25 25 24 18 15 14 15 12 13 17 17
69 68 66 63 60 58 58 56 51 47 48 45 44 48 43 40 38 37 37 38 37 32 31 31 29 31 33 34 33 30 27 26 26 24 21 15 16 13 12 14 21 16 16
68 67 66 63 60 57 56 56 53 51 48 44 43 42 40 41 40 36 38 37 33 31 30 29 30 32 35 34 31 29 26 26 25 19 18 15 16 14 13 10 13 18 15
70 67 66 62 60 58 57 56 55 51 47 43 38 38 40 41 38 36 37 33 31 30 27 29 31 33 33 31 29 27 26 25 23 22 20 15 14 11 13 12 12 14 14
72 68 64 62 62 60 56 57 55 49 45 42 40 40 40 38 35 38 33 30 29 27 27 30 32 32 32 29 28 27 25 23 22 19 17 15 14 12 14 13 13 14 14
73 66 64 61 60 59 56 54 55 48 42 40 40 39 37 35 38 33 29 28 27 26 29 30 30 30 26 26 28 26 24 24 19 14 17 15 15 12 14 14 14 17 15
70 67 63 59 59 56 53 56 50 44 39 38 36 34 33 36 32 27 26 25 25 27 28 28 26 24 27 27 28 25 21 21 17 18 17 13 13 12 13 14 11 16 16
64 65 62 58 56 53 55 54 46 41 37 35 33 32 33 31 26 24 25 23 24 26 26 24 25 26 25 22 21 22 22 20 19 18 16 14 12 12 15 15 10 11 12
60 62 58 53 52 52 54 52 45 37 37 33 31 32 29 26 24 24 22 23 24 24 23 25 24 22 19 18 17 15 16 20 19 18 20 18 14 11 11 15 16 13 12
58 54 53 51 50 51 52 49 43 39 36 33 32 26 26 25 22 20 21 21 21 21 22 22 21 17 15 11 9 13 17 17 15 16 18 16 13 14 13 14 15 13 11
50 52 52 51 51 52 50 45 40 34 32 30 28 26 23 21 19 18 19 19 18 19 18 17 11 12 11 9 14 17 15 11 14 15 15 15 13 13 13 16 13 13 13
48 47 49 47 48 48 45 40 35 36 33 29 27 24 21 19 16 17 18 16 15 14 14 9 7 7 10 7 10 7 17 14 13 14 15 13 11 12 12 11 11 12 12
49 46 47 47 45 42 38 37 38 39 30 26 23 21 19 16 17 17 15 12 12 12 9 7 8 8 7 8 10 10 14 14 12 11 10 9 10 12 11 10 11 12 12
45 47 46 44 41 39 40 39 33 27 25 22 21 19 17 17 16 14 12 10 10 8 7 10 8 8 9 10 11 9 9 11 12 10 8 10 13 14 12 11 11 10 12
45 46 44 42 41 40 39 34 28 26 25 23 20 18 18 16 15 13 11 9 8 7 9 12 11 9 9 9 9 9 9 10 11 11 11 10 11 12 12 11 11 12 12
42 42 40 39 38 33 31 28 27 24 21 17 18 17 16 16 14 14 11 8 8 8 10 12 12 10 10 9 8 8 8 8 7 9 10 10 11 11 12 13 13 15 15
36 44 36 38 35 29 27 26 21 18 19 21 20 19 18 17 14 13 11 8 8 9 11 12 12 12 11 11 11 11 11 11 10 10 10 10 10 11 11 12 12 14 15
38 43 38 33 30 28 24 21 22 22 20 19 19 18 20 16 16 14 12 9 9 11 12 14 14 14 12 12 11 11 10 10 10 11 10 9 8 8 8 9 9 11 12
40 36 33 29 25 23 22 21 21 19 19 22 20 19 19 15 15 15 13 10 11 10 13 12 12 12 12 11 10 9 9 9 10 10 10 11 11 9 9 10 12 12 11
31 28 25 24 22 20 19 19 22 24 25 21 20 20 18 16 15 15 12 11 12 12 12 13 13 12 11 11 9 8 7 6 7 8 9 11 12 11 10 11 9 8 11
23 22 21 19 20 20 22 21 19 19 22 26 22 20 18 17 14 18 14 12 14 14 14 13 13 13 11 10 10 7 6 6 5 5 8 10 11 11 10 10 9 8 8
19 19 21 24 24 22 22 21 17 14 18 22 22 19 17 15 14 17 17 13 16 17 15 13 12 12 12 11 7 5 6 6 5 5 5 7 8 9 9 10 10 10 10
23 22 23 23 22 22 21 21 21 19 21 20 18 17 18 16 15 14 13 12 15 17 16 15 12 11 11 10 7 5 6 7 7 6 5 5 5 7 8 11 13 14 14
23 23 23 22 22 22 23 23 21 22 21 19 16 17 17 17 16 15 14 13 12 13 13 12 11 9 9 8 8 7 7 7 6 6 7 8 8 8 9 9 10 11 13
24 24 23 22 21 21 20 20 20 20 18 16 16 16 18 17 17 15 13 12 11 10 10 9 9 8 7 7 7 6 7 7 7 7 7 7 7 9 11 12 14 16 19
23 24 22 22 22 21 19 18 19 20 20 18 17 16 16 16 15 13 12 11 10 8 7 7 6 6 6 6 7 8 8 8 9 9 10 11 13 15 17 20 23 26 29

GFSGL_500_spd_063.txt.gz
Wind_Speed
60 60 63 65 64 63 62 61 62 63 59 57 58 57 56 52 48 46 45 46 46 43 39 41 38 40 39 39 38 38 38 35 34 33 34 31 31 30 25 22 20 18 14
67 67 65 63 63 65 64 62 60 59 58 55 53 51 48 46 43 41 44 41 40 38 39 41 39 39 39 40 38 38 37 35 33 35 35 32 29 27 22 21 20 17 12
68 72 72 70 67 64 63 63 60 59 55 53 52 50 47 45 43 41 39 40 38 38 36 37 38 38 37 37 38 35 34 34 34 35 31 27 26 24 23 22 19 16 14
69 70 74 75 74 71 66 62 61 59 56 52 49 47 47 46 44 41 38 38 36 34 35 35 36 36 35 36 34 35 33 34 34 33 28 27 25 22 23 18 16 14 12
59 60 67 73 78 77 72 66 60 58 54 52 49 47 44 42 41 39 37 35 34 34 33 34 34 33 34 35 35 32 34 34 32 29 25 24 23 22 18 13 11 10 9
57 54 55 64 76 81 78 71 64 57 54 51 50 47 43 38 35 33 33 33 33 33 33 33 32 32 33 34 33 32 33 31 29 27 26 23 23 19 11 10 10 10 10
54 48 41 44 56 69 82 77 68 60 53 50 49 47 41 37 34 30 32 31 31 31 31 30 32 31 33 33 32 32 31 31 30 29 27 24 21 16 12 11 11 12 15
50 50 47 43 42 53 71 79 70 61 55 50 49 46 41 37 33 31 30 29 29 30 28 30 31 31 31 31 31 30 30 30 31 27 24 24 22 18 15 13 13 13 17
46 50 49 48 46 48 58 77 70 62 55 52 50 44 40 35 32 28 30 26 28 27 28 28 31 30 30 29 29 30 30 29 27 25 21 13 16 17 13 14 14 14 14
48 50 49 47 46 46 51 69 68 61 54 51 46 44 40 34 28 28 27 26 25 27 26 29 27 28 27 27 27 26 22 21 21 20 17 17 17 14 12 13 14 15 9
49 52 45 45 44 44 48 65 66 58 51 49 45 42 36 30 29 27 24 26 24 25 26 25 25 24 24 24 20 19 17 14 12 16 17 17 16 13 11 11 8 7 8
34 29 47 41 43 43 50 61 60 55 51 46 44 39 32 29 28 25 25 24 23 24 22 22 21 21 20 16 17 15 16 15 15 13 10 12 13 11 10 10 10 9 9
27 30 35 37 37 45 51 57 55 50 46 46 41 33 31 27 26 25 23 23 22 20 19 18 18 17 12 11 9 11 11 5 9 10 11 11 11 12 11 11 11 11 12
22 32 34 35 44 49 51 52 47 43 43 39 34 30 28 27 28 28 26 23 20 18 16 15 14 10 9 6 7 3 7 9 8 9 10 8 13 13 12 11 10 10 11
33 37 42 46 49 50 48 44 41 41 35 28 28 26 25 24 29 24 22 20 18 16 13 12 10 8 6 6 7 4 5 7 8 9 8 8 9 10 10 10 8 8 9
41 45 49 46 46 44 42 43 41 36 32 31 31 29 28 22 20 21 20 17 16 13 12 10 9 8 7 6 7 7 8 8 9 9 9 8 7 10 11 11 10 10 10
49 45 37 42 39 39 36 33 30 31 32 30 29 26 24 22 22 21 18 17 15 12 11 10 10 12 10 8 9 9 10 10 10 10 10 11 10 9 9 9 10 10 11
41 39 38 39 37 35 33 32 32 29 30 32 31 26 23 23 22 19 18 16 13 12 11 10 10 12 12 11 10 10 10 10 9 9 9 10 9 9 9 9 9 9 10
41 42 38 37 37 35 33 33 29 29 28 26 26 26 25 22 20 19 17 15 13 12 11 12 11 11 12 11 10 9 8 8 9 9 9 9 9 9 9 8 8 9 9
34 30 29 32 34 30 33 29 28 31 28 28 28 26 23 22 22 19 17 14 13 12 12 12 12 12 11 11 10 9 9 9 9 9 9 9 10 11 11 11 10 10 10
31 34 35 27 34 26 31 31 28 26 25 24 24 24 23 22 21 18 15 13 13 14 12 12 11 11 11 11 10 9 8 8 8 9 11 12 12 12 13 13 12 12 11
26 31 28 26 27 26 26 25 25 24 23 23 23 23 22 22 18 17 15 14 12 13 12 12 11 10 10 10 9 7 6 6 6 6 6 6 8 10 10 10 10 10 12
28 26 26 26 25 25 24 23 22 22 23 24 24 23 22 20 17 16 16 13 13 14 13 12 10 10 10 10 9 7 6 7 7 5 5 6 5 6 6 7 9 9 10
26 25 25 24 22 21 21 21 20 22 26 25 23 21 20 18 16 16 18 14 12 13 12 11 10 10 9 11 9 7 7 8 7 6 5 6 6 8 10 12 12 14 14
22 24 23 20 21 25 23 18 15 21 27 22 21 19 17 16 14 15 17 15 13 12 12 12 11 11 10 10 9 8 8 8 7 8 9 10 11 11 11 12 14 17 18
19 21 24 23 31 25 20 17 17 20 22 21 19 17 17 14 14 14 16 16 15 13 12 12 12 12 11 10 9 8 8 8 8 9 10 11 13 15 16 18 19 22 25

GFSGL_500_spd_069.txt.gz
Wind_Speed
39 39 41 43 44 46 47 46 46 45 44 44 44 53 63 62 54 41 39 39 35 34 34 30 30 33 34 35 37 35 36 37 33 35 33 35 33 33 32 32 30 26 24
42 43 43 43 44 44 44 43 45 45 46 47 45 38 51 59 54 48 44 40 37 37 37 34 33 33 33 35 35 35 38 35 32 32 33 32 31 32 33 35 30 26 24
45 45 47 48 50 50 49 47 47 46 45 45 45 43 41 45 47 46 38 35 34 34 35 36 35 35 33 34 34 36 37 34 33 31 32 31 30 31 32 31 25 23 23
47 45 45 49 52 53 51 52 52 49 48 46 43 41 43 41 38 34 31 29 32 34 37 37 36 36 34 34 35 36 34 33 32 31 31 31 31 31 30 28 25 22 23
50 50 49 50 51 54 55 56 54 55 53 50 48 46 44 42 38 37 35 33 34 37 38 38 39 36 35 34 34 36 34 33 30 29 30 29 31 33 30 29 21 22 20
58 55 53 57 58 59 61 60 58 55 58 56 53 49 45 41 40 38 38 35 35 38 37 39 38 37 37 34 32 33 32 30 30 29 30 30 30 31 30 27 22 18 17
57 60 62 61 63 64 66 64 61 60 61 59 58 55 49 44 40 38 39 36 37 37 38 38 37 34 33 31 28 30 28 28 28 31 32 34 30 31 29 24 21 16 17
61 61 61 64 67 64 65 64 65 62 62 64 64 60 54 47 43 39 37 38 39 37 38 34 34 29 31 26 28 26 26 26 30 32 34 33 32 29 27 23 19 18 15
64 63 62 63 61 59 61 62 61 61 64 65 64 64 59 50 46 40 38 40 39 38 37 32 29 30 27 25 24 24 26 28 31 32 32 30 27 23 19 18 20 13 12
59 56 51 49 51 57 56 58 62 63 62 62 61 64 61 53 49 44 42 41 40 40 34 28 28 29 26 24 21 24 26 30 31 29 24 22 21 18 14 12 10 10 11
49 46 44 45 48 48 47 49 53 61 57 57 57 62 63 56 52 47 44 42 41 38 31 24 25 28 23 19 21 23 25 29 26 22 19 19 15 12 12 13 9 9 10
47 43 42 43 45 39 36 39 46 51 53 50 52 56 63 60 53 49 46 41 38 36 27 23 25 22 18 18 20 23 26 22 20 17 20 19 21 11 14 13 10 8 7
40 39 41 41 34 34 28 33 45 49 45 46 48 54 66 60 57 50 43 39 36 25 23 26 20 16 16 17 20 21 21 17 14 11 9 9 6 17 15 11 10 10 9
41 41 42 28 31 31 30 40 49 46 44 41 40 55 66 60 53 47 42 40 28 21 25 22 16 15 14 17 18 15 12 14 9 8 9 5 4 8 11 10 9 9 10
32 24 23 32 35 37 39 41 48 45 40 32 37 57 59 56 48 43 38 29 25 27 24 19 15 15 15 17 13 9 8 7 6 5 6 9 5 10 9 9 8 8 8
15 17 19 20 29 37 42 44 41 34 36 37 53 57 54 48 45 43 35 29 28 25 20 18 17 16 16 14 11 9 10 8 7 6 5 4 5 7 7 8 7 6 6
8 13 16 19 24 31 35 38 40 38 45 56 57 54 48 41 43 35 31 29 26 22 22 20 18 16 14 14 10 10 10 10 10 9 7 6 6 4 5 7 7 8 9
19 20 25 29 32 35 38 40 47 56 56 53 48 47 45 39 35 32 30 27 24 22 20 19 17 14 14 14 12 10 9 9 7 6 6 7 7 7 7 7 7 8 10
33 39 43 46 50 53 55 58 57 54 46 40 34 41 40 37 34 31 30 28 24 21 19 17 14 13 15 15 12 11 9 7 6 5 5 5 5 6 6 7 7 7 7
53 58 51 54 56 54 46 49 46 44 41 39 36 33 31 30 27 25 24 23 21 20 18 15 12 13 14 15 13 10 8 7 6 6 7 6 6 6 6 5 6 7 9
54 44 43 50 38 44 35 37 34 39 37 36 34 33 31 28 27 24 23 22 21 18 14 12 11 13 15 15 13 11 9 8 7 7 6 6 7 6 7 7 9 11 9
27 37 43 40 38 42 39 40 38 36 34 32 33 29 27 25 23 22 21 21 18 15 13 10 11 12 14 14 12 10 8 7 5 5 4 3 3 4 6 6 5 6 6
32 32 32 32 33 32 31 30 30 29 27 31 29 24 23 23 22 22 21 18 15 13 11 10 11 12 12 12 10 8 8 7 5 4 3 3 2 2 1 2 3 5 7
27 29 28 27 28 28 28 29 29 28 27 27 26 26 24 22 21 21 18 17 16 15 15 16 15 13 11 11 11 10 8 5 4 5 5 3 2 1 2 3 5 6 9
26 23 26 29 27 29 27 27 26 26 26 25 23 21 21 22 22 19 18 18 17 16 15 13 11 12 13 11 10 9 6 5 5 5 4 3 3 3 3 4 6 8 12
25 23 26 25 22 24 24 24 23 20 21 21 21 22 22 22 20 17 17 19 14 15 16 16 15 14 11 10 10 9 8 7 7 6 4 4 3 4 6 8 11 15 19

GFSGL_500_spd_072.txt.gz
Wind_Speed
35 39 43 45 46 47 47 46 47 48 41 42 41 33 40 47 70 52 52 44 35 22 25 29 28 19 28 32 35 34 35 35 34 32 30 31 29 30 30 30 28 30 30
36 36 38 39 40 40 41 42 42 44 42 43 40 39 38 37 34 38 43 40 36 29 40 38 26 26 31 31 35 34 37 35 34 33 31 31 30 31 30 29 29 28 29
38 36 36 38 40 41 41 42 42 40 39 39 39 39 39 39 37 32 33 43 39 35 34 37 30 30 33 34 35 35 38 36 33 32 31 31 31 30 30 29 28 26 28
39 38 38 41 44 46 47 46 45 44 43 42 41 38 39 39 37 35 32 32 39 37 35 32 32 33 33 35 36 36 37 36 34 31 31 32 30 30 28 28 28 28 29
44 45 42 43 45 46 47 49 49 48 47 47 46 44 41 39 37 36 34 29 32 31 31 35 35 36 36 37 36 36 36 34 34 33 33 31 28 31 29 28 27 27 28
39 43 47 49 48 47 48 50 49 50 51 49 49 47 44 42 40 38 34 32 32 32 34 33 36 37 37 37 36 34 33 32 32 33 34 30 28 29 29 28 28 29 28
57 50 48 50 54 55 56 56 55 54 54 53 52 52 50 47 44 41 38 35 34 34 35 36 37 37 38 35 33 32 31 30 31 32 31 29 27 30 30 29 28 26 23
61 61 60 57 56 55 55 56 57 60 59 58 57 56 58 52 49 45 41 37 35 37 38 39 39 38 35 27 32 28 28 29 31 31 29 28 30 29 29 26 26 22 24
60 62 63 64 61 59 60 58 58 62 63 59 59 59 61 58 53 49 43 39 38 39 41 41 39 40 33 32 26 25 28 29 29 28 29 29 28 24 23 23 22 21 21
71 71 70 72 77 77 75 66 63 58 58 59 58 58 61 64 59 53 47 44 41 40 41 42 45 39 32 28 23 25 28 27 28 28 29 27 22 20 20 20 18 16 16
64 61 61 62 64 62 59 58 58 58 57 51 50 52 57 61 64 58 52 48 43 41 41 42 42 34 32 21 22 24 24 27 27 27 24 22 19 17 17 15 12 11 11
55 53 56 55 55 55 56 54 55 55 52 50 51 56 62 57 63 61 56 50 46 41 40 38 37 33 25 19 19 21 23 24 24 21 18 17 16 18 18 14 11 10 10
52 47 47 46 49 48 49 49 46 47 49 47 49 49 53 63 60 61 57 50 47 41 41 40 36 30 18 17 19 20 20 20 19 16 15 9 10 9 13 10 9 11 10
41 43 44 44 45 42 42 43 42 42 39 43 43 47 57 58 56 59 56 52 46 43 41 40 38 21 19 19 18 17 15 13 9 5 5 6 6 1 8 9 10 10 10
37 39 40 38 40 42 44 39 33 27 26 30 37 45 52 52 50 58 59 53 46 41 37 36 25 22 20 16 15 13 13 8 4 2 2 6 5 3 6 8 8 8 8
36 37 34 28 31 37 36 33 27 25 26 35 42 44 46 47 51 60 58 51 45 40 38 22 20 18 14 14 14 13 11 8 5 2 3 5 6 6 7 8 8 8 8
29 38 34 27 24 25 32 36 35 33 35 37 33 34 38 45 56 59 55 48 42 39 34 25 18 14 14 16 13 11 9 8 7 7 7 7 6 4 4 6 7 8 8
16 13 14 20 27 29 37 38 39 38 34 32 31 35 42 49 53 56 51 48 46 35 29 22 17 16 16 14 13 10 8 8 9 8 8 7 6 6 5 5 5 5 5
19 18 21 23 27 32 36 36 39 38 40 37 42 50 50 55 53 49 45 39 34 29 24 19 18 17 16 13 13 10 9 8 8 8 7 6 6 6 5 4 5 4 5
30 30 28 29 33 36 34 34 36 41 48 48 50 50 51 52 48 47 37 31 27 24 20 19 17 16 13 14 14 12 10 10 9 9 8 8 6 4 4 4 4 4 5
46 43 40 39 43 48 51 52 52 52 48 48 54 42 36 36 36 35 31 29 24 22 19 17 16 13 14 16 15 13 12 11 10 9 8 7 6 7 7 6 6 7 8
41 43 45 51 45 49 50 36 38 38 43 47 43 40 37 33 31 29 26 25 23 19 18 16 13 14 16 16 16 15 13 12 10 9 8 7 6 6 6 6 7 6 5
34 38 40 34 28 30 33 38 41 42 40 37 35 33 30 30 26 26 25 22 21 20 18 16 14 16 18 17 15 13 13 12 10 9 8 7 7 7 7 7 4 4 4
32 34 34 33 32 33 34 32 36 34 35 35 30 29 27 27 25 24 23 23 22 21 18 16 18 18 16 16 16 16 14 13 12 10 8 8 7 6 5 4 3 3 3
25 26 28 26 27 24 28 28 27 30 32 27 26 24 24 25 25 25 24 23 21 19 19 19 18 18 18 18 18 16 15 12 8 8 9 8 7 6 6 5 4 4 6
21 25 26 25 28 24 26 26 26 26 26 23 23 23 23 24 24 22 21 19 18 18 18 19 20 19 18 17 17 16 14 11 11 10 9 8 7 7 7 7 6 9 12

GFSGL_500_spd_075.txt.gz
Wind_Speed
42 40 43 52 54 52 51 50 49 50 47 47 48 47 40 39 38 41 42 44 57 69 50 53 41 30 30 32 27 38 31 36 39 35 31 29 29 32 31 32 30 27 30
45 47 40 42 46 48 50 51 51 51 51 49 47 47 44 41 39 38 35 34 37 43 44 45 31 22 27 30 27 29 41 38 40 35 30 29 31 33 33 31 28 29 29
38 43 44 43 44 44 45 45 46 47 45 44 43 44 43 40 43 41 37 35 33 36 43 35 36 35 30 32 31 38 40 39 37 34 30 30 29 33 33 30 28 29 29
39 39 37 43 45 45 44 44 43 43 42 42 40 40 38 38 40 40 41 36 38 35 41 44 40 40 37 36 37 40 42 40 35 30 29 29 30 32 32 32 30 31 31
48 44 41 42 49 50 49 47 45 45 45 44 43 40 39 38 37 38 36 35 35 36 34 44 44 41 38 40 41 43 42 38 32 30 27 27 30 32 33 33 31 31 34
55 50 45 45 46 48 50 50 48 47 46 45 44 43 43 42 41 38 37 33 33 34 36 42 49 44 42 46 48 44 38 37 28 27 25 27 30 32 34 31 32 33 33
54 52 50 47 50 53 49 50 49 49 49 48 46 46 45 44 43 42 40 37 33 31 33 35 36 41 42 45 41 38 37 31 30 26 27 27 28 32 33 33 34 32 30
63 62 63 61 58 55 45 43 48 51 50 49 47 48 48 48 47 47 42 39 36 34 33 34 34 36 39 39 37 34 33 30 21 22 24 27 29 32 33 34 31 28 28
66 64 62 65 63 62 61 56 51 51 54 53 51 50 48 49 49 50 49 41 41 37 35 35 34 37 37 37 36 34 33 26 21 21 23 27 29 30 31 29 27 27 27
65 66 71 70 70 67 66 59 60 58 57 56 54 51 50 51 51 51 50 47 43 42 38 36 36 38 37 38 34 33 35 24 19 21 24 27 28 27 25 25 21 21 20
74 74 70 68 69 69 71 70 65 65 63 60 60 58 61 56 57 56 55 51 47 45 41 38 39 35 38 36 35 34 34 18 18 20 23 25 22 23 23 22 19 14 10
73 70 71 74 73 72 69 68 67 70 70 68 64 67 66 55 57 59 60 61 55 49 45 42 40 36 34 32 32 30 18 16 19 20 21 20 19 19 16 19 14 9 7
64 68 66 63 63 64 66 65 62 59 58 55 54 52 52 51 53 54 56 60 60 54 45 46 41 38 33 32 28 18 15 17 16 17 19 18 16 14 14 10 6 7 6
55 49 52 50 50 52 53 58 59 57 54 52 51 52 49 48 50 49 52 56 59 56 49 48 43 39 38 33 28 18 15 12 13 12 9 8 7 8 8 9 7 6 6
48 39 40 44 44 47 50 48 47 47 48 47 48 48 47 49 47 48 46 50 56 54 52 48 42 37 28 32 19 17 12 11 10 8 5 6 5 4 3 4 5 5 5
38 37 31 35 38 41 41 40 41 42 43 44 44 46 48 50 51 50 50 49 51 53 51 44 38 35 34 19 19 14 12 12 12 9 5 4 2 4 2 2 4 6 6
36 32 29 31 28 29 36 35 37 37 37 34 34 37 44 49 50 48 51 50 52 53 43 40 35 26 19 21 18 14 13 12 11 9 7 5 4 2 4 5 5 5 4
30 30 26 24 26 26 24 30 29 23 22 23 25 29 35 43 49 52 48 52 49 46 41 35 27 24 24 20 16 13 13 12 11 11 8 5 4 6 5 4 5 7 7
18 24 24 22 20 21 25 27 31 28 24 22 24 26 30 39 44 46 47 43 44 43 38 32 27 23 19 17 12 13 14 13 12 11 9 8 7 6 5 6 7 6 6
19 14 12 17 21 20 32 37 34 29 27 28 28 28 31 35 40 46 47 49 44 38 36 30 28 22 18 14 13 17 15 13 12 11 10 9 7 7 7 7 7 7 7
34 28 28 30 37 35 34 36 35 31 28 24 30 29 36 40 37 38 46 50 46 40 34 28 24 21 17 15 18 17 15 14 13 13 11 10 8 9 9 8 9 9 8
48 43 40 39 37 35 35 31 27 26 29 36 41 35 36 40 42 39 41 37 29 30 29 28 25 20 18 18 20 18 17 15 14 12 10 10 11 11 11 11 11 10 8
37 41 43 42 42 44 42 43 42 41 44 34 31 38 42 44 39 39 32 35 33 31 29 25 20 18 18 19 20 18 16 14 11 11 12 13 12 11 12 12 10 8 8
27 27 30 32 30 27 27 32 37 36 30 32 37 36 32 39 36 30 32 32 32 29 25 21 19 20 20 20 18 17 15 14 13 14 13 12 11 10 10 9 8 8 8
32 34 33 35 33 34 34 32 33 38 43 37 40 34 30 31 31 32 32 30 27 23 20 19 19 18 18 19 19 17 16 16 16 14 13 12 11 10 9 8 8 9 9
22 20 24 28 29 28 28 31 25 19 27 29 26 26 27 29 29 28 26 24 22 21 19 18 19 19 20 20 19 18 18 18 16 14 14 11 9 9 9 10 11 11 12